Time,TemperatureF,DewpointF,PressureIn,WindDirection,WindDirectionDegrees,WindSpeedMPH,WindSpeedGustMPH,Humidity,HourlyPrecipIn,Conditions,Clouds,dailyrainin,SoftwareType,DateUTC
2013-03-03 00:00:00,25.7,23.4,30.05,West,270,1.0,3.0,91,0.00,,---,0.00,VWS V14.01,2013-03-03 05:00:00,
2013-03-03 00:05:00,25.7,23.4,30.05,West,270,1.0,7.0,91,0.00,,---,0.00,VWS V14.01,2013-03-03 05:05:00,
2013-03-03 00:10:00,25.7,23.4,30.05,WSW,248,1.0,4.0,91,0.00,,---,0.00,VWS V14.01,2013-03-03 05:10:00,
2013-03-03 00:15:00,25.6,23.3,30.05,WSW,248,2.0,6.0,91,0.00,,---,0.00,VWS V14.01,2013-03-03 05:15:00,
2013-03-03 00:20:00,25.7,23.4,30.05,West,270,1.0,3.0,91,0.00,,---,0.00,VWS V14.01,2013-03-03 05:20:00,
2013-03-03 00:25:00,25.6,23.3,30.05,WSW,248,3.0,7.0,91,0.00,,---,0.00,VWS V14.01,2013-03-03 05:25:00,
2013-03-03 00:30:00,25.6,23.3,30.05,SW,225,1.0,5.0,91,0.00,,---,0.00,VWS V14.01,2013-03-03 05:30:00,
2013-03-03 00:35:00,25.6,23.3,30.05,WSW,248,2.0,6.0,91,0.00,,---,0.00,VWS V14.01,2013-03-03 05:35:00,
2013-03-03 00:40:00,25.6,23.1,30.05,WSW,248,2.0,7.0,90,0.00,,---,0.00,VWS V14.01,2013-03-03 05:40:00,
2013-03-03 00:45:00,25.6,23.3,30.05,WSW,248,1.0,5.0,91,0.00,,---,0.00,VWS V14.01,2013-03-03 05:45:00,
2013-03-03 00:50:00,25.6,23.3,30.05,WSW,248,1.0,4.0,91,0.00,,---,0.00,VWS V14.01,2013-03-03 05:50:00,
2013-03-03 00:55:00,25.6,23.3,30.05,West,270,2.0,4.0,91,0.00,,---,0.00,VWS V14.01,2013-03-03 05:55:00,
2013-03-03 01:00:00,25.6,23.3,30.05,WNW,292,1.0,6.0,91,0.00,,---,0.00,VWS V14.01,2013-03-03 06:00:00,
2013-03-03 01:05:00,25.5,23.2,30.05,WSW,248,2.0,5.0,91,0.00,,---,0.00,VWS V14.01,2013-03-03 06:05:00,
2013-03-03 01:10:00,25.5,23.0,30.05,WSW,248,2.0,5.0,90,0.00,,---,0.00,VWS V14.01,2013-03-03 06:10:00,
2013-03-03 01:15:00,25.6,23.3,30.05,West,270,2.0,10.0,91,0.00,,---,0.00,VWS V14.01,2013-03-03 06:15:00,
2013-03-03 01:20:00,25.5,23.0,30.05,WSW,248,3.0,7.0,90,0.00,,---,0.00,VWS V14.01,2013-03-03 06:20:00,
2013-03-03 01:25:00,25.5,23.2,30.05,WSW,248,1.0,5.0,91,0.00,,---,0.00,VWS V14.01,2013-03-03 06:25:00,
2013-03-03 01:30:00,25.5,23.2,30.05,WSW,248,1.0,6.0,91,0.00,,---,0.00,VWS V14.01,2013-03-03 06:30:00,
2013-03-03 01:35:00,25.5,23.2,30.05,West,270,1.0,4.0,91,0.00,,---,0.00,VWS V14.01,2013-03-03 06:35:00,
2013-03-03 01:40:00,25.4,22.9,30.04,WSW,248,2.0,8.0,90,0.00,,---,0.00,VWS V14.01,2013-03-03 06:40:00,
2013-03-03 01:45:00,25.4,22.9,30.05,West,270,2.0,5.0,90,0.00,,---,0.00,VWS V14.01,2013-03-03 06:45:00,
2013-03-03 01:50:00,25.4,22.9,30.05,West,270,2.0,6.0,90,0.00,,---,0.00,VWS V14.01,2013-03-03 06:50:00,
2013-03-03 01:55:00,25.3,22.8,30.05,WSW,248,3.0,7.0,90,0.00,,---,0.00,VWS V14.01,2013-03-03 06:55:00,
2013-03-03 02:00:00,25.3,22.8,30.05,WSW,248,2.0,7.0,90,0.00,,---,0.00,VWS V14.01,2013-03-03 07:00:00,
2013-03-03 02:05:00,25.3,22.8,30.05,WSW,248,1.0,4.0,90,0.00,,---,0.00,VWS V14.01,2013-03-03 07:05:00,
2013-03-03 02:10:00,25.3,23.0,30.05,West,270,1.0,5.0,91,0.00,,---,0.00,VWS V14.01,2013-03-03 07:10:00,
2013-03-03 02:15:00,25.2,23.0,30.05,West,270,1.0,6.0,91,0.00,,---,0.00,VWS V14.01,2013-03-03 07:15:00,
2013-03-03 02:20:00,25.2,23.0,30.05,WSW,248,1.0,3.0,91,0.00,,---,0.00,VWS V14.01,2013-03-03 07:20:00,
2013-03-03 02:25:00,25.1,22.9,30.05,WSW,248,1.0,4.0,91,0.00,,---,0.00,VWS V14.01,2013-03-03 07:25:00,
2013-03-03 02:30:00,25.1,22.9,30.04,WSW,248,1.0,5.0,91,0.00,,---,0.00,VWS V14.01,2013-03-03 07:30:00,
2013-03-03 02:35:00,25.1,22.9,30.05,WSW,248,1.0,4.0,91,0.00,,---,0.00,VWS V14.01,2013-03-03 07:35:00,
2013-03-03 02:40:00,25.1,22.9,30.05,WSW,248,1.0,4.0,91,0.00,,---,0.00,VWS V14.01,2013-03-03 07:40:00,
2013-03-03 02:45:00,25.0,23.0,30.05,WSW,248,1.0,3.0,92,0.00,,---,0.00,VWS V14.01,2013-03-03 07:45:00,
2013-03-03 02:50:00,25.0,23.0,30.04,WSW,248,0.0,2.0,92,0.00,,---,0.00,VWS V14.01,2013-03-03 07:50:00,
2013-03-03 02:55:00,25.0,23.0,30.04,West,270,0.0,2.0,92,0.00,,---,0.00,VWS V14.01,2013-03-03 07:55:00,
2013-03-03 03:00:00,24.9,22.9,30.03,West,270,0.0,3.0,92,0.00,,---,0.00,VWS V14.01,2013-03-03 08:00:00,
2013-03-03 03:05:00,24.9,22.9,30.04,North,0,1.0,2.0,92,0.00,,---,0.00,VWS V14.01,2013-03-03 08:05:00,
2013-03-03 03:10:00,24.9,23.2,30.04,West,270,1.0,3.0,93,0.00,,---,0.00,VWS V14.01,2013-03-03 08:10:00,
2013-03-03 03:15:00,24.8,23.1,30.04,West,270,0.0,3.0,93,0.00,,---,0.00,VWS V14.01,2013-03-03 08:15:00,
2013-03-03 03:20:00,24.8,23.1,30.04,West,270,1.0,4.0,93,0.00,,---,0.00,VWS V14.01,2013-03-03 08:20:00,
2013-03-03 03:25:00,24.7,23.0,30.03,West,270,0.0,2.0,93,0.00,,---,0.00,VWS V14.01,2013-03-03 08:25:00,
2013-03-03 03:30:00,24.7,23.0,30.03,West,270,1.0,4.0,93,0.00,,---,0.00,VWS V14.01,2013-03-03 08:30:00,
2013-03-03 03:35:00,24.7,23.0,30.03,West,270,1.0,3.0,93,0.00,,---,0.00,VWS V14.01,2013-03-03 08:35:00,
2013-03-03 03:40:00,24.7,23.0,30.04,West,270,0.0,2.0,93,0.00,,---,0.00,VWS V14.01,2013-03-03 08:40:00,
2013-03-03 03:45:00,24.7,23.0,30.03,West,270,0.0,3.0,93,0.00,,---,0.00,VWS V14.01,2013-03-03 08:45:00,
2013-03-03 03:50:00,24.7,23.0,30.03,West,270,3.0,8.0,93,0.00,,---,0.00,VWS V14.01,2013-03-03 08:50:00,
2013-03-03 03:55:00,24.7,23.0,30.04,WSW,248,3.0,6.0,93,0.00,,---,0.00,VWS V14.01,2013-03-03 08:55:00,
2013-03-03 04:00:00,24.7,23.0,30.03,West,270,2.0,6.0,93,0.00,,---,0.00,VWS V14.01,2013-03-03 09:00:00,
2013-03-03 04:05:00,24.7,23.0,30.03,West,270,2.0,6.0,93,0.00,,---,0.00,VWS V14.01,2013-03-03 09:05:00,
2013-03-03 04:10:00,24.7,22.7,30.03,WSW,248,2.0,9.0,92,0.00,,---,0.00,VWS V14.01,2013-03-03 09:10:00,
2013-03-03 04:15:00,24.6,22.6,30.04,WSW,248,2.0,7.0,92,0.00,,---,0.00,VWS V14.01,2013-03-03 09:15:00,
2013-03-03 04:20:00,24.5,22.5,30.04,West,270,4.0,10.0,92,0.00,,---,0.00,VWS V14.01,2013-03-03 09:20:00,
2013-03-03 04:25:00,24.4,22.2,30.04,WSW,248,5.0,12.0,91,0.00,,---,0.00,VWS V14.01,2013-03-03 09:25:00,
2013-03-03 04:30:00,24.4,21.9,30.04,WSW,248,2.0,7.0,90,0.00,,---,0.00,VWS V14.01,2013-03-03 09:30:00,
2013-03-03 04:35:00,24.3,21.5,30.04,WSW,248,2.0,5.0,89,0.00,,---,0.00,VWS V14.01,2013-03-03 09:35:00,
2013-03-03 04:40:00,24.2,21.2,30.04,West,270,5.0,15.0,88,0.00,,---,0.00,VWS V14.01,2013-03-03 09:40:00,
2013-03-03 04:45:00,24.1,21.1,30.04,WSW,248,2.0,12.0,88,0.00,,---,0.00,VWS V14.01,2013-03-03 09:45:00,
2013-03-03 04:50:00,24.0,21.0,30.05,WSW,248,3.0,9.0,88,0.00,,---,0.00,VWS V14.01,2013-03-03 09:50:00,
2013-03-03 04:55:00,24.0,21.0,30.05,WSW,248,2.0,11.0,88,0.00,,---,0.00,VWS V14.01,2013-03-03 09:55:00,
2013-03-03 05:00:00,23.9,21.1,30.05,WSW,248,1.0,5.0,89,0.00,,---,0.00,VWS V14.01,2013-03-03 10:00:00,
2013-03-03 05:05:00,23.9,20.9,30.04,WSW,248,3.0,10.0,88,0.00,,---,0.00,VWS V14.01,2013-03-03 10:05:00,
2013-03-03 05:10:00,23.9,21.1,30.05,WSW,248,1.0,4.0,89,0.00,,---,0.00,VWS V14.01,2013-03-03 10:10:00,
2013-03-03 05:15:00,23.8,20.8,30.05,WSW,248,2.0,5.0,88,0.00,,---,0.00,VWS V14.01,2013-03-03 10:15:00,
2013-03-03 05:20:00,23.8,20.8,30.05,WSW,248,4.0,8.0,88,0.00,,---,0.00,VWS V14.01,2013-03-03 10:20:00,
2013-03-03 05:25:00,23.8,21.0,30.05,WSW,248,1.0,6.0,89,0.00,,---,0.00,VWS V14.01,2013-03-03 10:25:00,
2013-03-03 05:30:00,23.8,21.0,30.05,WSW,248,1.0,6.0,89,0.00,,---,0.00,VWS V14.01,2013-03-03 10:30:00,
2013-03-03 05:35:00,23.8,21.0,30.05,WSW,248,2.0,6.0,89,0.00,,---,0.00,VWS V14.01,2013-03-03 10:35:00,
2013-03-03 05:40:00,23.7,20.7,30.05,WSW,248,1.0,9.0,88,0.00,,---,0.00,VWS V14.01,2013-03-03 10:40:00,
2013-03-03 05:45:00,23.6,20.6,30.06,WSW,248,2.0,6.0,88,0.00,,---,0.00,VWS V14.01,2013-03-03 10:45:00,
2013-03-03 05:50:00,23.6,20.6,30.05,WSW,248,1.0,3.0,88,0.00,,---,0.00,VWS V14.01,2013-03-03 10:50:00,
2013-03-03 05:55:00,23.6,20.6,30.05,West,270,1.0,4.0,88,0.00,,---,0.00,VWS V14.01,2013-03-03 10:55:00,
2013-03-03 06:00:00,23.5,20.5,30.05,WSW,248,3.0,9.0,88,0.00,,---,0.00,VWS V14.01,2013-03-03 11:00:00,
2013-03-03 06:05:00,23.5,20.5,30.05,WSW,248,1.0,4.0,88,0.00,,---,0.00,VWS V14.01,2013-03-03 11:05:00,
2013-03-03 06:10:00,23.4,20.4,30.05,West,270,1.0,5.0,88,0.00,,---,0.00,VWS V14.01,2013-03-03 11:10:00,
2013-03-03 06:15:00,23.4,20.4,30.06,WSW,248,1.0,6.0,88,0.00,,---,0.00,VWS V14.01,2013-03-03 11:15:00,
2013-03-03 06:20:00,23.3,20.3,30.05,WSW,248,2.0,6.0,88,0.00,,---,0.00,VWS V14.01,2013-03-03 11:20:00,
2013-03-03 06:25:00,23.3,20.3,30.06,WSW,248,1.0,6.0,88,0.00,,---,0.00,VWS V14.01,2013-03-03 11:25:00,
2013-03-03 06:30:00,23.3,20.3,30.06,WSW,248,2.0,6.0,88,0.00,,---,0.00,VWS V14.01,2013-03-03 11:30:00,
2013-03-03 06:35:00,23.2,20.2,30.06,West,270,2.0,6.0,88,0.00,,---,0.00,VWS V14.01,2013-03-03 11:35:00,
2013-03-03 06:40:00,23.1,20.1,30.06,West,270,1.0,4.0,88,0.00,,---,0.00,VWS V14.01,2013-03-03 11:40:00,
2013-03-03 06:45:00,23.1,20.1,30.06,WSW,248,1.0,6.0,88,0.00,,---,0.00,VWS V14.01,2013-03-03 11:45:00,
2013-03-03 06:50:00,23.0,19.7,30.06,WSW,248,1.0,4.0,87,0.00,,---,0.00,VWS V14.01,2013-03-03 11:50:00,
2013-03-03 06:55:00,23.0,19.7,30.06,WSW,248,0.0,2.0,87,0.00,,---,0.00,VWS V14.01,2013-03-03 11:55:00,
2013-03-03 07:00:00,22.9,19.4,30.06,WSW,248,1.0,4.0,86,0.00,,---,0.00,VWS V14.01,2013-03-03 12:00:00,
2013-03-03 07:05:00,22.9,19.4,30.06,WNW,292,1.0,3.0,86,0.00,,---,0.00,VWS V14.01,2013-03-03 12:05:00,
2013-03-03 07:10:00,22.9,19.4,30.06,WSW,248,2.0,9.0,86,0.00,,---,0.00,VWS V14.01,2013-03-03 12:10:00,
2013-03-03 07:15:00,22.9,19.1,30.06,West,270,2.0,11.0,85,0.00,,---,0.00,VWS V14.01,2013-03-03 12:15:00,
2013-03-03 07:20:00,23.0,19.2,30.06,WSW,248,2.0,6.0,85,0.00,,---,0.00,VWS V14.01,2013-03-03 12:20:00,
2013-03-03 07:25:00,23.0,19.2,30.07,WSW,248,1.0,7.0,85,0.00,,---,0.00,VWS V14.01,2013-03-03 12:25:00,
2013-03-03 07:30:00,23.0,19.2,30.07,WSW,248,2.0,5.0,85,0.00,,---,0.00,VWS V14.01,2013-03-03 12:30:00,
2013-03-03 07:35:00,23.0,21.0,30.07,West,270,1.0,4.0,92,0.00,,---,0.00,VWS V14.01,2013-03-03 12:35:00,
2013-03-03 07:40:00,23.1,19.3,30.07,West,270,1.0,4.0,85,0.00,,---,0.00,VWS V14.01,2013-03-03 12:40:00,
2013-03-03 07:45:00,23.1,19.0,30.07,WSW,248,1.0,4.0,84,0.00,,---,0.00,VWS V14.01,2013-03-03 12:45:00,
2013-03-03 07:50:00,23.1,19.0,30.07,West,270,1.0,5.0,84,0.00,,---,0.00,VWS V14.01,2013-03-03 12:50:00,
2013-03-03 07:55:00,23.1,18.7,30.07,West,270,1.0,4.0,83,0.00,,---,0.00,VWS V14.01,2013-03-03 12:55:00,
2013-03-03 08:00:00,23.2,18.8,30.07,WSW,248,1.0,8.0,83,0.00,,---,0.00,VWS V14.01,2013-03-03 13:00:00,
2013-03-03 08:05:00,23.3,18.9,30.07,WNW,292,1.0,4.0,83,0.00,,---,0.00,VWS V14.01,2013-03-03 13:05:00,
2013-03-03 08:10:00,23.4,19.0,30.07,West,270,1.0,6.0,83,0.00,,---,0.00,VWS V14.01,2013-03-03 13:10:00,
2013-03-03 08:15:00,23.4,18.7,30.07,WSW,248,2.0,6.0,82,0.00,,---,0.00,VWS V14.01,2013-03-03 13:15:00,
2013-03-03 08:20:00,23.5,18.8,30.08,WSW,248,3.0,7.0,82,0.00,,---,0.00,VWS V14.01,2013-03-03 13:20:00,
2013-03-03 08:25:00,23.5,18.8,30.08,WSW,248,2.0,8.0,82,0.00,,---,0.00,VWS V14.01,2013-03-03 13:25:00,
2013-03-03 08:30:00,23.6,18.9,30.07,West,270,1.0,5.0,82,0.00,,---,0.00,VWS V14.01,2013-03-03 13:30:00,
2013-03-03 08:35:00,23.6,18.9,30.07,WSW,248,4.0,11.0,82,0.00,,---,0.00,VWS V14.01,2013-03-03 13:35:00,
2013-03-03 08:40:00,23.7,19.0,30.08,WSW,248,1.0,6.0,82,0.00,,---,0.00,VWS V14.01,2013-03-03 13:40:00,
2013-03-03 08:45:00,23.8,19.1,30.08,WSW,248,2.0,5.0,82,0.00,,---,0.00,VWS V14.01,2013-03-03 13:45:00,
2013-03-03 08:50:00,23.9,19.2,30.07,WSW,248,2.0,7.0,82,0.00,,---,0.00,VWS V14.01,2013-03-03 13:50:00,
2013-03-03 08:55:00,23.9,19.2,30.07,WSW,248,2.0,6.0,82,0.00,,---,0.00,VWS V14.01,2013-03-03 13:55:00,
2013-03-03 09:00:00,23.8,19.1,30.07,West,270,3.0,8.0,82,0.00,,---,0.00,VWS V14.01,2013-03-03 14:00:00,
2013-03-03 09:05:00,23.9,19.2,30.07,WSW,248,3.0,11.0,82,0.00,,---,0.00,VWS V14.01,2013-03-03 14:05:00,
2013-03-03 09:10:00,23.9,18.9,30.07,WSW,248,5.0,12.0,81,0.00,,---,0.00,VWS V14.01,2013-03-03 14:10:00,
2013-03-03 09:15:00,23.9,18.9,30.07,West,270,3.0,12.0,81,0.00,,---,0.00,VWS V14.01,2013-03-03 14:15:00,
2013-03-03 09:20:00,24.0,19.0,30.07,West,270,4.0,10.0,81,0.00,,---,0.00,VWS V14.01,2013-03-03 14:20:00,
2013-03-03 09:25:00,24.1,19.1,30.07,WSW,248,3.0,12.0,81,0.00,,---,0.00,VWS V14.01,2013-03-03 14:25:00,
2013-03-03 09:30:00,24.0,19.0,30.07,WSW,248,6.0,15.0,81,0.00,,---,0.00,VWS V14.01,2013-03-03 14:30:00,
2013-03-03 09:35:00,24.0,19.0,30.07,WSW,248,2.0,7.0,81,0.00,,---,0.00,VWS V14.01,2013-03-03 14:35:00,
2013-03-03 09:40:00,24.0,19.0,30.07,WSW,248,3.0,10.0,81,0.00,,---,0.00,VWS V14.01,2013-03-03 14:40:00,
2013-03-03 09:45:00,24.1,19.1,30.08,WSW,248,3.0,7.0,81,0.00,,---,0.00,VWS V14.01,2013-03-03 14:45:00,
2013-03-03 09:50:00,24.2,19.2,30.07,WSW,248,3.0,9.0,81,0.00,,---,0.00,VWS V14.01,2013-03-03 14:50:00,
2013-03-03 09:55:00,24.1,19.1,30.08,WSW,248,5.0,11.0,81,0.00,,---,0.00,VWS V14.01,2013-03-03 14:55:00,
2013-03-03 10:00:00,24.0,19.0,30.08,WSW,248,5.0,14.0,81,0.00,,---,0.00,VWS V14.01,2013-03-03 15:00:00,
2013-03-03 10:05:00,24.0,19.6,30.07,WSW,248,2.0,5.0,83,0.00,,---,0.00,VWS V14.01,2013-03-03 15:05:00,
2013-03-03 10:10:00,23.9,19.8,30.07,WSW,248,4.0,12.0,84,0.00,,---,0.00,VWS V14.01,2013-03-03 15:10:00,
2013-03-03 10:15:00,24.0,20.1,30.07,WSW,248,2.0,7.0,85,0.00,,---,0.00,VWS V14.01,2013-03-03 15:15:00,
2013-03-03 10:20:00,24.2,20.1,30.07,WSW,248,4.0,10.0,84,0.00,,---,0.00,VWS V14.01,2013-03-03 15:20:00,
2013-03-03 10:25:00,24.2,20.1,30.07,WSW,248,4.0,11.0,84,0.00,,---,0.00,VWS V14.01,2013-03-03 15:25:00,
2013-03-03 10:30:00,24.2,20.1,30.07,WSW,248,4.0,14.0,84,0.00,,---,0.00,VWS V14.01,2013-03-03 15:30:00,
2013-03-03 10:35:00,24.4,20.5,30.07,West,270,1.0,4.0,85,0.00,,---,0.00,VWS V14.01,2013-03-03 15:35:00,
2013-03-03 10:40:00,24.7,20.8,30.07,SW,225,0.0,3.0,85,0.00,,---,0.00,VWS V14.01,2013-03-03 15:40:00,
2013-03-03 10:45:00,24.7,20.3,30.07,WSW,248,4.0,13.0,83,0.00,,---,0.00,VWS V14.01,2013-03-03 15:45:00,
2013-03-03 10:50:00,24.7,19.7,30.07,West,270,3.0,11.0,81,0.00,,---,0.00,VWS V14.01,2013-03-03 15:50:00,
2013-03-03 10:55:00,24.9,19.9,30.07,WNW,292,2.0,9.0,81,0.00,,---,0.00,VWS V14.01,2013-03-03 15:55:00,
2013-03-03 11:00:00,25.3,20.3,30.07,WSW,248,1.0,7.0,81,0.00,,---,0.00,VWS V14.01,2013-03-03 16:00:00,
2013-03-03 11:05:00,25.7,19.8,30.07,WSW,248,2.0,4.0,78,0.00,,---,0.00,VWS V14.01,2013-03-03 16:05:00,
2013-03-03 11:10:00,25.9,19.7,30.07,WSW,248,3.0,8.0,77,0.00,,---,0.00,VWS V14.01,2013-03-03 16:10:00,
2013-03-03 11:15:00,25.7,19.2,30.07,WSW,248,4.0,10.0,76,0.00,,---,0.00,VWS V14.01,2013-03-03 16:15:00,
2013-03-03 11:20:00,25.7,19.8,30.07,WSW,248,3.0,10.0,78,0.00,,---,0.00,VWS V14.01,2013-03-03 16:20:00,
2013-03-03 11:25:00,25.7,19.8,30.07,WSW,248,4.0,12.0,78,0.00,,---,0.00,VWS V14.01,2013-03-03 16:25:00,
2013-03-03 11:30:00,25.8,19.3,30.07,West,270,5.0,13.0,76,0.00,,---,0.00,VWS V14.01,2013-03-03 16:30:00,
2013-03-03 11:35:00,25.9,19.7,30.07,WSW,248,2.0,9.0,77,0.00,,---,0.00,VWS V14.01,2013-03-03 16:35:00,
2013-03-03 11:40:00,25.9,20.0,30.07,WSW,248,3.0,8.0,78,0.00,,---,0.00,VWS V14.01,2013-03-03 16:40:00,
2013-03-03 11:45:00,26.0,20.7,30.07,WSW,248,2.0,8.0,80,0.00,,---,0.00,VWS V14.01,2013-03-03 16:45:00,
2013-03-03 11:50:00,25.8,20.5,30.07,WSW,248,3.0,10.0,80,0.00,,---,0.00,VWS V14.01,2013-03-03 16:50:00,
2013-03-03 11:55:00,25.9,20.9,30.07,WSW,248,1.0,5.0,81,0.00,,---,0.00,VWS V14.01,2013-03-03 16:55:00,
2013-03-03 12:00:00,26.1,20.8,30.07,West,270,2.0,8.0,80,0.00,,---,0.00,VWS V14.01,2013-03-03 17:00:00,
2013-03-03 12:05:00,26.2,20.6,30.06,WSW,248,1.0,6.0,79,0.00,,---,0.00,VWS V14.01,2013-03-03 17:05:00,
2013-03-03 12:10:00,26.3,20.4,30.06,WSW,248,3.0,12.0,78,0.00,,---,0.00,VWS V14.01,2013-03-03 17:10:00,
2013-03-03 12:15:00,26.3,20.7,30.06,WSW,248,3.0,10.0,79,0.00,,---,0.00,VWS V14.01,2013-03-03 17:15:00,
2013-03-03 12:20:00,26.2,21.2,30.06,WSW,248,3.0,10.0,81,0.00,,---,0.00,VWS V14.01,2013-03-03 17:20:00,
2013-03-03 12:25:00,26.2,20.9,30.06,WSW,248,1.0,5.0,80,0.00,,---,0.00,VWS V14.01,2013-03-03 17:25:00,
2013-03-03 12:30:00,26.4,21.1,30.06,WSW,248,4.0,15.0,80,0.00,,---,0.00,VWS V14.01,2013-03-03 17:30:00,
2013-03-03 12:35:00,26.4,20.5,30.06,WSW,248,4.0,13.0,78,0.00,,---,0.00,VWS V14.01,2013-03-03 17:35:00,
2013-03-03 12:40:00,26.5,20.6,30.06,WSW,248,5.0,17.0,78,0.00,,---,0.00,VWS V14.01,2013-03-03 17:40:00,
2013-03-03 12:45:00,26.6,21.0,30.06,WSW,248,5.0,12.0,79,0.00,,---,0.00,VWS V14.01,2013-03-03 17:45:00,
2013-03-03 12:50:00,26.4,20.2,30.05,West,270,4.0,13.0,77,0.00,,---,0.00,VWS V14.01,2013-03-03 17:50:00,
2013-03-03 12:55:00,26.5,20.0,30.05,WSW,248,5.0,13.0,76,0.00,,---,0.00,VWS V14.01,2013-03-03 17:55:00,
2013-03-03 13:00:00,26.5,19.7,30.05,WSW,248,7.0,16.0,75,0.00,,---,0.00,VWS V14.01,2013-03-03 18:00:00,
2013-03-03 13:05:00,26.5,19.7,30.06,West,270,3.0,10.0,75,0.00,,---,0.00,VWS V14.01,2013-03-03 18:05:00,
2013-03-03 13:10:00,26.5,20.3,30.05,West,270,3.0,13.0,77,0.00,,---,0.00,VWS V14.01,2013-03-03 18:10:00,
2013-03-03 13:15:00,26.5,20.3,30.05,WSW,248,3.0,8.0,77,0.00,,---,0.00,VWS V14.01,2013-03-03 18:15:00,
2013-03-03 13:20:00,26.6,19.8,30.05,WSW,248,4.0,12.0,75,0.00,,---,0.00,VWS V14.01,2013-03-03 18:20:00,
2013-03-03 13:25:00,26.5,20.6,30.04,WSW,248,4.0,12.0,78,0.00,,---,0.00,VWS V14.01,2013-03-03 18:25:00,
2013-03-03 13:30:00,26.6,20.7,30.04,SSE,165,0.0,5.0,78,0.00,,---,0.00,VWS V14.01,2013-03-03 18:30:00,
2013-03-03 13:35:00,26.7,20.2,30.04,West,270,3.0,9.0,76,0.00,,---,0.00,VWS V14.01,2013-03-03 18:35:00,
2013-03-03 13:37:00,26.6,20.4,30.04,WNW,292,0.0,4.0,77,0.00,,---,0.00,VWS V14.01,2013-03-03 18:37:00,
2013-03-03 13:40:00,26.6,20.4,30.05,West,279,2.0,7.0,77,0.00,,---,0.00,VWS V14.01,2013-03-03 18:40:00,
2013-03-03 13:42:00,26.6,20.7,30.04,WSW,250,5.0,11.0,78,0.00,,---,0.00,VWS V14.01,2013-03-03 18:42:00,
2013-03-03 13:45:00,26.6,22.4,30.04,West,261,1.0,7.0,84,0.00,,---,0.00,VWS V14.01,2013-03-03 18:45:00,
2013-03-03 13:47:00,26.6,22.4,30.04,WSW,252,9.0,12.0,84,0.00,,---,0.00,VWS V14.01,2013-03-03 18:47:00,
2013-03-03 13:50:00,26.6,20.4,30.04,WSW,253,0.0,9.0,77,0.00,,---,0.00,VWS V14.01,2013-03-03 18:50:00,
2013-03-03 13:52:00,26.5,20.3,30.03,SW,234,6.0,14.0,77,0.00,,---,0.00,VWS V14.01,2013-03-03 18:52:00,
2013-03-03 13:55:00,26.7,20.5,30.04,West,265,5.0,6.0,77,0.00,,---,0.00,VWS V14.01,2013-03-03 18:55:00,
2013-03-03 13:57:00,26.6,20.4,30.03,West,268,4.0,10.0,77,0.00,,---,0.00,VWS V14.01,2013-03-03 18:57:00,
2013-03-03 14:00:00,26.8,20.3,30.04,WSW,244,0.0,7.0,76,0.00,,---,0.00,VWS V14.01,2013-03-03 19:00:00,
2013-03-03 14:02:00,26.6,20.4,30.03,ESE,103,1.0,9.0,77,0.00,,---,0.00,VWS V14.01,2013-03-03 19:02:00,
2013-03-03 14:05:00,26.7,20.2,30.04,SSW,209,0.0,10.0,76,0.00,,---,0.00,VWS V14.01,2013-03-03 19:05:00,
2013-03-03 14:07:00,26.6,20.4,30.04,WSW,254,3.0,14.0,77,0.00,,---,0.00,VWS V14.01,2013-03-03 19:07:00,
2013-03-03 14:10:00,26.6,20.1,30.04,West,271,0.0,10.0,76,0.00,,---,0.00,VWS V14.01,2013-03-03 19:10:00,
2013-03-03 14:12:00,26.6,20.4,30.04,NNW,344,1.0,9.0,77,0.00,,---,0.00,VWS V14.01,2013-03-03 19:12:00,
2013-03-03 14:15:00,26.6,20.4,30.05,SE,137,0.0,6.0,77,0.00,,---,0.00,VWS V14.01,2013-03-03 19:15:00,
2013-03-03 14:17:00,26.6,21.0,30.04,WSW,258,3.0,5.0,79,0.00,,---,0.00,VWS V14.01,2013-03-03 19:17:00,
2013-03-03 14:20:00,26.7,20.2,30.04,WSW,256,0.0,11.0,76,0.00,,---,0.00,VWS V14.01,2013-03-03 19:20:00,
2013-03-03 14:22:00,26.6,20.4,30.04,WSW,254,4.0,7.0,77,0.00,,---,0.00,VWS V14.01,2013-03-03 19:22:00,
2013-03-03 14:25:00,26.9,20.7,30.04,SW,227,2.0,3.0,77,0.00,,---,0.00,VWS V14.01,2013-03-03 19:25:00,
2013-03-03 14:27:00,26.6,20.4,30.05,West,279,0.0,7.0,77,0.00,,---,0.00,VWS V14.01,2013-03-03 19:27:00,
2013-03-03 14:30:00,27.2,20.6,30.04,WSW,248,5.0,5.0,76,0.00,,---,0.00,VWS V14.01,2013-03-03 19:30:00,
2013-03-03 14:32:00,26.6,20.7,30.04,WSW,253,2.0,7.0,78,0.00,,---,0.00,VWS V14.01,2013-03-03 19:32:00,
2013-03-03 14:35:00,27.2,20.3,30.04,WSW,252,0.0,7.0,75,0.00,,---,0.00,VWS V14.01,2013-03-03 19:35:00,
2013-03-03 14:37:00,26.6,20.4,30.04,WSW,253,0.0,9.0,77,0.00,,---,0.00,VWS V14.01,2013-03-03 19:37:00,
2013-03-03 14:40:00,27.2,20.6,30.04,NE,49,0.0,6.0,76,0.00,,---,0.00,VWS V14.01,2013-03-03 19:40:00,
2013-03-03 14:42:00,26.7,20.2,30.04,WSW,238,3.0,6.0,76,0.00,,---,0.00,VWS V14.01,2013-03-03 19:42:00,
2013-03-03 14:45:00,27.1,20.5,30.04,West,273,0.0,9.0,76,0.00,,---,0.00,VWS V14.01,2013-03-03 19:45:00,
2013-03-03 14:48:00,26.8,20.6,30.04,WSW,257,4.0,5.0,77,0.00,,---,0.00,VWS V14.01,2013-03-03 19:48:00,
2013-03-03 14:50:00,27.0,20.8,30.04,West,273,4.0,5.0,77,0.00,,---,0.00,VWS V14.01,2013-03-03 19:50:00,
2013-03-03 14:53:00,26.7,20.2,30.04,SSW,209,0.0,10.0,76,0.00,,---,0.00,VWS V14.01,2013-03-03 19:53:00,
2013-03-03 14:55:00,26.9,21.0,30.04,WSW,248,0.0,7.0,78,0.00,,---,0.00,VWS V14.01,2013-03-03 19:55:00,
2013-03-03 14:58:00,26.6,20.1,30.04,West,271,0.0,10.0,76,0.00,,---,0.00,VWS V14.01,2013-03-03 19:58:00,
2013-03-03 15:00:00,27.0,20.8,30.04,NNW,347,0.0,6.0,77,0.00,,---,0.00,VWS V14.01,2013-03-03 20:00:00,
2013-03-03 15:03:00,26.6,20.1,30.05,SSE,159,0.0,6.0,76,0.00,,---,0.00,VWS V14.01,2013-03-03 20:03:00,
2013-03-03 15:05:00,27.0,20.8,30.04,WNW,288,0.0,4.0,77,0.00,,---,0.00,VWS V14.01,2013-03-03 20:05:00,
2013-03-03 15:08:00,26.7,20.2,30.04,WSW,256,0.0,11.0,76,0.00,,---,0.00,VWS V14.01,2013-03-03 20:08:00,
2013-03-03 15:10:00,26.9,20.4,30.05,SSW,204,0.0,7.0,76,0.00,,---,0.00,VWS V14.01,2013-03-03 20:10:00,
2013-03-03 15:13:00,26.9,20.7,30.04,SW,227,2.0,3.0,77,0.00,,---,0.00,VWS V14.01,2013-03-03 20:13:00,
2013-03-03 15:15:00,26.7,20.2,30.05,WSW,251,6.0,7.0,76,0.00,,---,0.00,VWS V14.01,2013-03-03 20:15:00,
2013-03-03 15:18:00,27.2,20.6,30.04,WSW,241,2.0,5.0,76,0.00,,---,0.00,VWS V14.01,2013-03-03 20:18:00,
2013-03-03 15:20:00,26.6,20.1,30.05,WNW,292,3.0,11.0,76,0.00,,---,0.00,VWS V14.01,2013-03-03 20:20:00,
2013-03-03 15:23:00,27.2,20.3,30.04,WSW,252,0.0,7.0,75,0.00,,---,0.00,VWS V14.01,2013-03-03 20:23:00,
2013-03-03 15:25:00,26.6,20.7,30.05,East,83,2.0,7.0,78,0.00,,---,0.00,VWS V14.01,2013-03-03 20:25:00,
2013-03-03 15:28:00,27.2,20.6,30.04,NE,49,0.0,6.0,76,0.00,,---,0.00,VWS V14.01,2013-03-03 20:28:00,
2013-03-03 15:30:00,26.5,20.9,30.05,East,82,1.0,5.0,79,0.00,,---,0.00,VWS V14.01,2013-03-03 20:30:00,
2013-03-03 15:33:00,27.1,20.5,30.04,West,273,0.0,9.0,76,0.00,,---,0.00,VWS V14.01,2013-03-03 20:33:00,
2013-03-03 15:35:00,26.5,21.2,30.05,West,259,0.0,8.0,80,0.00,,---,0.00,VWS V14.01,2013-03-03 20:35:00,
2013-03-03 15:38:00,27.0,20.8,30.04,West,273,4.0,5.0,77,0.00,,---,0.00,VWS V14.01,2013-03-03 20:38:00,
2013-03-03 15:40:00,26.5,20.9,30.05,West,260,3.0,4.0,79,0.00,,---,0.00,VWS V14.01,2013-03-03 20:40:00,
2013-03-03 15:44:00,26.9,21.3,30.04,NNE,20,1.0,1.0,79,0.00,,---,0.00,VWS V14.01,2013-03-03 20:44:00,
2013-03-03 15:45:00,26.6,21.0,30.05,West,281,0.0,5.0,79,0.00,,---,0.00,VWS V14.01,2013-03-03 20:45:00,
2013-03-03 15:49:00,27.0,20.8,30.05,NNW,347,0.0,0.0,77,0.00,,---,0.00,VWS V14.01,2013-03-03 20:49:00,
2013-03-03 15:50:00,26.6,21.3,30.05,North,5,1.0,8.0,80,0.00,,---,0.00,VWS V14.01,2013-03-03 20:50:00,
2013-03-03 15:54:00,27.0,20.8,30.05,SW,217,2.0,3.0,77,0.00,,---,0.00,VWS V14.01,2013-03-03 20:54:00,
2013-03-03 15:55:00,26.5,21.2,30.05,NW,306,2.0,4.0,80,0.00,,---,0.00,VWS V14.01,2013-03-03 20:55:00,
2013-03-03 15:59:00,26.9,20.4,30.05,SSW,204,0.0,1.0,76,0.00,,---,0.00,VWS V14.01,2013-03-03 20:59:00,
2013-03-03 16:00:00,26.5,21.2,30.06,SW,233,0.0,7.0,80,0.00,,---,0.00,VWS V14.01,2013-03-03 21:00:00,
2013-03-03 16:04:00,26.7,20.2,30.05,West,267,4.0,11.0,76,0.00,,---,0.00,VWS V14.01,2013-03-03 21:04:00,
2013-03-03 16:05:00,26.3,21.3,30.06,WSW,252,3.0,6.0,81,0.00,,---,0.00,VWS V14.01,2013-03-03 21:05:00,
2013-03-03 16:09:00,26.6,20.4,30.05,West,276,6.0,7.0,77,0.00,,---,0.00,VWS V14.01,2013-03-03 21:09:00,
2013-03-03 16:10:00,26.2,21.8,30.06,WSW,254,4.0,8.0,83,0.00,,---,0.00,VWS V14.01,2013-03-03 21:10:00,
2013-03-03 16:14:00,26.5,20.6,30.05,East,84,0.0,5.0,78,0.00,,---,0.00,VWS V14.01,2013-03-03 21:14:00,
2013-03-03 16:15:00,26.0,21.6,30.06,WSW,253,0.0,6.0,83,0.00,,---,0.00,VWS V14.01,2013-03-03 21:15:00,
2013-03-03 16:19:00,26.5,20.9,30.05,WNW,299,5.0,5.0,79,0.00,,---,0.00,VWS V14.01,2013-03-03 21:19:00,
2013-03-03 16:20:00,25.9,22.0,30.06,WNW,285,1.0,4.0,85,0.00,,---,0.00,VWS V14.01,2013-03-03 21:20:00,
2013-03-03 16:24:00,26.5,20.9,30.05,West,259,0.0,0.0,79,0.00,,---,0.00,VWS V14.01,2013-03-03 21:24:00,
2013-03-03 16:25:00,25.8,21.9,30.06,WSW,245,4.0,6.0,85,0.00,,---,0.00,VWS V14.01,2013-03-03 21:25:00,
2013-03-03 16:29:00,26.5,20.9,30.05,West,269,2.0,5.0,79,0.00,,---,0.00,VWS V14.01,2013-03-03 21:29:00,
2013-03-03 16:30:00,25.8,22.2,30.06,WNW,302,0.0,4.0,86,0.00,,---,0.00,VWS V14.01,2013-03-03 21:30:00,
2013-03-03 16:34:00,26.6,21.0,30.05,WSW,245,6.0,6.0,79,0.00,,---,0.00,VWS V14.01,2013-03-03 21:34:00,
2013-03-03 16:35:00,25.7,21.8,30.06,WNW,288,0.0,2.0,85,0.00,,---,0.00,VWS V14.01,2013-03-03 21:35:00,
2013-03-03 16:40:00,26.6,21.3,30.05,West,280,3.0,4.0,80,0.00,,---,0.00,VWS V14.01,2013-03-03 21:40:00,
2013-03-03 16:45:00,26.5,21.2,30.06,West,261,1.0,7.0,80,0.00,,---,0.00,VWS V14.01,2013-03-03 21:45:00,
2013-03-03 16:50:00,26.4,21.1,30.06,WSW,250,1.0,6.0,80,0.00,,---,0.00,VWS V14.01,2013-03-03 21:50:00,
2013-03-03 16:55:00,26.3,21.6,30.06,WSW,254,0.0,6.0,82,0.00,,---,0.00,VWS V14.01,2013-03-03 21:55:00,
2013-03-03 17:00:00,26.2,21.8,30.06,WSW,248,3.0,6.0,83,0.00,,---,0.00,VWS V14.01,2013-03-03 22:00:00,
2013-03-03 17:05:00,26.0,21.8,30.06,West,262,1.0,4.0,84,0.00,,---,0.00,VWS V14.01,2013-03-03 22:05:00,
2013-03-03 17:10:00,25.9,22.0,30.06,SSW,205,0.0,4.0,85,0.00,,---,0.00,VWS V14.01,2013-03-03 22:10:00,
2013-03-03 17:15:00,25.8,21.9,30.06,WNW,299,0.0,4.0,85,0.00,,---,0.00,VWS V14.01,2013-03-03 22:15:00,
2013-03-03 17:20:00,25.7,22.1,30.07,WNW,288,0.0,2.0,86,0.00,,---,0.00,VWS V14.01,2013-03-03 22:20:00,
2013-03-03 17:25:00,25.7,21.8,30.07,WNW,288,0.0,1.0,85,0.00,,---,0.00,VWS V14.01,2013-03-03 22:25:00,
2013-03-03 17:30:00,25.7,21.8,30.07,West,261,0.0,4.0,85,0.00,,---,0.00,VWS V14.01,2013-03-03 22:30:00,
2013-03-03 17:35:00,25.0,22.2,30.08,North,360,0.0,4.0,89,0.00,,---,0.00,VWS V14.01,2013-03-03 22:35:00,
2013-03-03 17:36:00,25.8,21.9,30.07,SSW,202,0.0,2.0,85,0.00,,---,0.00,VWS V14.01,2013-03-03 22:36:00,
2013-03-03 17:40:00,24.9,22.4,30.08,WNW,290,2.0,4.0,90,0.00,,---,0.00,VWS V14.01,2013-03-03 22:40:00,
2013-03-03 17:41:00,25.7,21.8,30.07,WNW,302,0.0,3.0,85,0.00,,---,0.00,VWS V14.01,2013-03-03 22:41:00,
2013-03-03 17:45:00,24.8,22.3,30.08,West,279,0.0,3.0,90,0.00,,---,0.00,VWS V14.01,2013-03-03 22:45:00,
2013-03-03 17:46:00,25.7,21.8,30.07,ENE,65,0.0,3.0,85,0.00,,---,0.00,VWS V14.01,2013-03-03 22:46:00,
2013-03-03 17:50:00,24.7,22.5,30.08,WSW,242,0.0,4.0,91,0.00,,---,0.00,VWS V14.01,2013-03-03 22:50:00,
2013-03-03 17:51:00,25.5,21.9,30.07,West,273,3.0,4.0,86,0.00,,---,0.00,VWS V14.01,2013-03-03 22:51:00,
2013-03-03 17:55:00,24.7,22.5,30.09,West,281,0.0,3.0,91,0.00,,---,0.00,VWS V14.01,2013-03-03 22:55:00,
2013-03-03 17:56:00,25.4,21.8,30.07,WNW,292,0.0,5.0,86,0.00,,---,0.00,VWS V14.01,2013-03-03 22:56:00,
2013-03-03 18:00:00,24.7,22.5,30.08,West,269,4.0,8.0,91,0.00,,---,0.00,VWS V14.01,2013-03-03 23:00:00,
2013-03-03 18:01:00,25.3,21.7,30.07,SW,235,2.0,4.0,86,0.00,,---,0.00,VWS V14.01,2013-03-03 23:01:00,
2013-03-03 18:05:00,24.6,22.1,30.09,WNW,294,0.0,6.0,90,0.00,,---,0.00,VWS V14.01,2013-03-03 23:05:00,
2013-03-03 18:06:00,25.2,21.6,30.07,NW,309,0.0,4.0,86,0.00,,---,0.00,VWS V14.01,2013-03-03 23:06:00,
2013-03-03 18:10:00,24.5,22.0,30.09,WSW,248,4.0,7.0,90,0.00,,---,0.00,VWS V14.01,2013-03-03 23:10:00,
2013-03-03 18:11:00,25.2,21.9,30.08,West,269,3.0,5.0,87,0.00,,---,0.00,VWS V14.01,2013-03-03 23:11:00,
2013-03-03 18:15:00,24.4,21.9,30.09,WSW,253,0.0,6.0,90,0.00,,---,0.00,VWS V14.01,2013-03-03 23:15:00,
2013-03-03 18:16:00,25.1,22.0,30.08,West,261,0.0,4.0,88,0.00,,---,0.00,VWS V14.01,2013-03-03 23:16:00,
2013-03-03 18:20:00,24.4,21.9,30.09,WSW,254,0.0,3.0,90,0.00,,---,0.00,VWS V14.01,2013-03-03 23:20:00,
2013-03-03 18:21:00,25.0,22.0,30.08,North,355,0.0,4.0,88,0.00,,---,0.00,VWS V14.01,2013-03-03 23:21:00,
2013-03-03 18:25:00,24.3,21.8,30.09,WSW,246,0.0,4.0,90,0.00,,---,0.00,VWS V14.01,2013-03-03 23:25:00,
2013-03-03 18:26:00,24.9,22.1,30.08,WNW,290,2.0,4.0,89,0.00,,---,0.00,VWS V14.01,2013-03-03 23:26:00,
2013-03-03 18:30:00,24.3,21.8,30.09,WSW,252,0.0,7.0,90,0.00,,---,0.00,VWS V14.01,2013-03-03 23:30:00,
2013-03-03 18:31:00,24.8,22.3,30.08,West,279,1.0,3.0,90,0.00,,---,0.00,VWS V14.01,2013-03-03 23:31:00,
2013-03-03 18:35:00,24.4,21.9,30.10,WSW,245,0.0,7.0,90,0.00,,---,0.00,VWS V14.01,2013-03-03 23:35:00,
2013-03-03 18:36:00,24.8,22.5,30.08,WSW,242,2.0,4.0,91,0.00,,---,0.00,VWS V14.01,2013-03-03 23:36:00,
2013-03-03 18:40:00,24.4,21.9,30.09,West,263,2.0,3.0,90,0.00,,---,0.00,VWS V14.01,2013-03-03 23:40:00,
2013-03-03 18:41:00,24.7,22.5,30.09,West,281,2.0,3.0,91,0.00,,---,0.00,VWS V14.01,2013-03-03 23:41:00,
2013-03-03 18:45:00,24.4,21.9,30.10,WSW,250,3.0,6.0,90,0.00,,---,0.00,VWS V14.01,2013-03-03 23:45:00,
2013-03-03 18:46:00,24.7,22.5,30.08,West,280,2.0,3.0,91,0.00,,---,0.00,VWS V14.01,2013-03-03 23:46:00,
2013-03-03 18:50:00,24.4,21.9,30.10,SSE,160,0.0,7.0,90,0.00,,---,0.00,VWS V14.01,2013-03-03 23:50:00,
2013-03-03 18:51:00,24.7,22.2,30.08,WNW,287,0.0,6.0,90,0.00,,---,0.00,VWS V14.01,2013-03-03 23:51:00,
2013-03-03 18:55:00,24.4,21.9,30.10,West,269,0.0,7.0,90,0.00,,---,0.00,VWS V14.01,2013-03-03 23:55:00,
2013-03-03 18:56:00,24.5,22.0,30.09,WSW,252,0.0,6.0,90,0.00,,---,0.00,VWS V14.01,2013-03-03 23:56:00,
2013-03-03 19:00:00,24.4,21.9,30.10,WSW,250,3.0,7.0,90,0.00,,---,0.00,VWS V14.01,2013-03-04 00:00:00,
2013-03-03 19:01:00,24.5,22.0,30.09,WSW,257,3.0,6.0,90,0.00,,---,0.00,VWS V14.01,2013-03-04 00:01:00,
2013-03-03 19:05:00,24.4,21.9,30.10,WSW,250,3.0,4.0,90,0.00,,---,0.00,VWS V14.01,2013-03-04 00:05:00,
2013-03-03 19:06:00,24.4,21.9,30.09,WSW,254,2.0,3.0,90,0.00,,---,0.00,VWS V14.01,2013-03-04 00:06:00,
2013-03-03 19:10:00,24.4,21.9,30.11,West,267,4.0,6.0,90,0.00,,---,0.00,VWS V14.01,2013-03-04 00:10:00,
2013-03-03 19:11:00,24.3,21.8,30.09,WSW,246,0.0,4.0,90,0.00,,---,0.00,VWS V14.01,2013-03-04 00:11:00,
2013-03-03 19:15:00,24.4,21.6,30.11,West,267,1.0,5.0,89,0.00,,---,0.00,VWS V14.01,2013-03-04 00:15:00,
2013-03-03 19:16:00,24.3,21.8,30.09,WSW,242,0.0,7.0,90,0.00,,---,0.00,VWS V14.01,2013-03-04 00:16:00,
2013-03-03 19:20:00,24.4,21.6,30.11,WSW,242,0.0,5.0,89,0.00,,---,0.00,VWS V14.01,2013-03-04 00:20:00,
2013-03-03 19:22:00,24.4,21.9,30.09,West,277,6.0,6.0,90,0.00,,---,0.00,VWS V14.01,2013-03-04 00:22:00,
2013-03-03 19:25:00,24.4,21.9,30.11,WSW,253,2.0,4.0,90,0.00,,---,0.00,VWS V14.01,2013-03-04 00:25:00,
2013-03-03 19:27:00,24.4,21.9,30.10,WSW,252,0.0,3.0,90,0.00,,---,0.00,VWS V14.01,2013-03-04 00:27:00,
2013-03-03 19:30:00,24.3,21.8,30.11,West,259,4.0,5.0,90,0.00,,---,0.00,VWS V14.01,2013-03-04 00:30:00,
2013-03-03 19:32:00,24.4,21.9,30.09,WSW,251,3.0,6.0,90,0.00,,---,0.00,VWS V14.01,2013-03-04 00:32:00,
2013-03-03 19:35:00,24.0,21.5,30.11,WSW,248,0.0,5.0,90,0.00,,---,0.00,VWS V14.01,2013-03-04 00:35:00,
2013-03-03 19:37:00,24.4,21.9,30.10,SW,236,1.0,7.0,90,0.00,,---,0.00,VWS V14.01,2013-03-04 00:37:00,
2013-03-03 19:40:00,23.7,21.5,30.12,West,266,0.0,4.0,91,0.00,,---,0.00,VWS V14.01,2013-03-04 00:40:00,
2013-03-03 19:42:00,24.4,21.9,30.10,West,269,0.0,7.0,90,0.00,,---,0.00,VWS V14.01,2013-03-04 00:42:00,
2013-03-03 19:45:00,23.4,21.2,30.11,WSW,239,5.0,5.0,91,0.00,,---,0.00,VWS V14.01,2013-03-04 00:45:00,
2013-03-03 19:47:00,24.4,21.9,30.10,WSW,251,2.0,6.0,90,0.00,,---,0.00,VWS V14.01,2013-03-04 00:47:00,
2013-03-03 19:50:00,23.1,21.1,30.11,WSW,246,0.0,6.0,92,0.00,,---,0.00,VWS V14.01,2013-03-04 00:50:00,
2013-03-03 19:52:00,24.4,21.6,30.10,WSW,249,0.0,4.0,89,0.00,,---,0.00,VWS V14.01,2013-03-04 00:52:00,
2013-03-03 19:55:00,23.0,21.3,30.12,WSW,256,3.0,3.0,93,0.00,,---,0.00,VWS V14.01,2013-03-04 00:55:00,
2013-03-03 19:57:00,24.4,21.9,30.11,West,267,0.0,6.0,90,0.00,,---,0.00,VWS V14.01,2013-03-04 00:57:00,
2013-03-03 20:00:00,22.9,21.2,30.12,WSW,253,2.0,5.0,93,0.00,,---,0.00,VWS V14.01,2013-03-04 01:00:00,
2013-03-03 20:02:00,24.4,21.9,30.10,West,267,0.0,5.0,90,0.00,,---,0.00,VWS V14.01,2013-03-04 01:02:00,
2013-03-03 20:05:00,22.8,21.1,30.12,West,259,1.0,3.0,93,0.00,,---,0.00,VWS V14.01,2013-03-04 01:05:00,
2013-03-03 20:07:00,24.4,21.6,30.11,WSW,242,0.0,5.0,89,0.00,,---,0.00,VWS V14.01,2013-03-04 01:07:00,
2013-03-03 20:10:00,22.7,21.0,30.12,West,259,3.0,3.0,93,0.00,,---,0.00,VWS V14.01,2013-03-04 01:10:00,
2013-03-03 20:12:00,24.4,21.9,30.11,WSW,243,2.0,3.0,90,0.00,,---,0.00,VWS V14.01,2013-03-04 01:12:00,
2013-03-03 20:15:00,22.6,20.9,30.12,West,261,1.0,4.0,93,0.00,,---,0.00,VWS V14.01,2013-03-04 01:15:00,
2013-03-03 20:17:00,24.4,21.9,30.12,WNW,294,0.0,5.0,90,0.00,,---,0.00,VWS V14.01,2013-03-04 01:17:00,
2013-03-03 20:20:00,22.6,20.9,30.12,West,261,1.0,3.0,93,0.00,,---,0.00,VWS V14.01,2013-03-04 01:20:00,
2013-03-03 20:22:00,24.1,21.6,30.11,WSW,248,0.0,5.0,90,0.00,,---,0.00,VWS V14.01,2013-03-04 01:22:00,
2013-03-03 20:25:00,22.7,20.7,30.12,WNW,282,0.0,3.0,92,0.00,,---,0.00,VWS V14.01,2013-03-04 01:25:00,
2013-03-03 20:27:00,23.8,21.3,30.12,West,266,2.0,4.0,90,0.00,,---,0.00,VWS V14.01,2013-03-04 01:27:00,
2013-03-03 20:30:00,22.7,20.5,30.12,WSW,249,0.0,6.0,91,0.00,,---,0.00,VWS V14.01,2013-03-04 01:30:00,
2013-03-03 20:32:00,23.4,21.2,30.11,West,262,2.0,4.0,91,0.00,,---,0.00,VWS V14.01,2013-03-04 01:32:00,
2013-03-03 20:35:00,22.7,20.5,30.12,WSW,250,0.0,3.0,91,0.00,,---,0.00,VWS V14.01,2013-03-04 01:35:00,
2013-03-03 20:37:00,23.2,21.2,30.11,WSW,247,0.0,6.0,92,0.00,,---,0.00,VWS V14.01,2013-03-04 01:37:00,
2013-03-03 20:40:00,22.8,20.6,30.12,WSW,250,0.0,4.0,91,0.00,,---,0.00,VWS V14.01,2013-03-04 01:40:00,
2013-03-03 20:42:00,23.0,21.3,30.12,WSW,256,3.0,3.0,93,0.00,,---,0.00,VWS V14.01,2013-03-04 01:42:00,
2013-03-03 20:45:00,22.8,20.3,30.13,West,267,1.0,3.0,90,0.00,,---,0.00,VWS V14.01,2013-03-04 01:45:00,
2013-03-03 20:48:00,22.9,21.2,30.12,WSW,258,4.0,5.0,93,0.00,,---,0.00,VWS V14.01,2013-03-04 01:48:00,
2013-03-03 20:50:00,22.8,20.0,30.13,West,259,2.0,7.0,89,0.00,,---,0.00,VWS V14.01,2013-03-04 01:50:00,
2013-03-03 20:53:00,22.8,21.1,30.12,West,259,2.0,3.0,93,0.00,,---,0.00,VWS V14.01,2013-03-04 01:53:00,
2013-03-03 20:55:00,22.8,19.5,30.13,West,260,0.0,3.0,87,0.00,,---,0.00,VWS V14.01,2013-03-04 01:55:00,
2013-03-03 20:58:00,22.7,21.0,30.12,West,259,1.0,3.0,93,0.00,,---,0.00,VWS V14.01,2013-03-04 01:58:00,
2013-03-03 21:00:00,22.9,19.4,30.12,WSW,249,3.0,5.0,86,0.00,,---,0.00,VWS V14.01,2013-03-04 02:00:00,
2013-03-03 21:03:00,22.7,21.0,30.12,West,261,4.0,4.0,93,0.00,,---,0.00,VWS V14.01,2013-03-04 02:03:00,
2013-03-03 21:05:00,22.9,19.4,30.12,West,281,1.0,5.0,86,0.00,,---,0.00,VWS V14.01,2013-03-04 02:05:00,
2013-03-03 21:08:00,22.6,20.9,30.12,West,261,0.0,3.0,93,0.00,,---,0.00,VWS V14.01,2013-03-04 02:08:00,
2013-03-03 21:10:00,22.9,19.4,30.12,WSW,240,0.0,6.0,86,0.00,,---,0.00,VWS V14.01,2013-03-04 02:10:00,
2013-03-03 21:13:00,22.7,20.7,30.12,WNW,282,0.0,3.0,92,0.00,,---,0.00,VWS V14.01,2013-03-04 02:13:00,
2013-03-03 21:15:00,23.0,19.2,30.12,WSW,254,1.0,7.0,85,0.00,,---,0.00,VWS V14.01,2013-03-04 02:15:00,
2013-03-03 21:18:00,22.7,20.7,30.12,WSW,250,0.0,6.0,92,0.00,,---,0.00,VWS V14.01,2013-03-04 02:18:00,
2013-03-03 21:20:00,23.0,19.2,30.12,West,260,0.0,6.0,85,0.00,,---,0.00,VWS V14.01,2013-03-04 02:20:00,
2013-03-03 21:23:00,22.8,20.6,30.12,WSW,250,0.0,3.0,91,0.00,,---,0.00,VWS V14.01,2013-03-04 02:23:00,
2013-03-03 21:25:00,23.0,19.2,30.12,West,260,0.0,2.0,85,0.00,,---,0.00,VWS V14.01,2013-03-04 02:25:00,
2013-03-03 21:28:00,22.8,20.6,30.12,WSW,249,0.0,4.0,91,0.00,,---,0.00,VWS V14.01,2013-03-04 02:28:00,
2013-03-03 21:30:00,23.1,19.0,30.12,West,261,1.0,5.0,84,0.00,,---,0.00,VWS V14.01,2013-03-04 02:30:00,
2013-03-03 21:33:00,22.8,20.3,30.13,West,267,2.0,3.0,90,0.00,,---,0.00,VWS V14.01,2013-03-04 02:33:00,
2013-03-03 21:35:00,23.1,19.0,30.12,West,271,2.0,6.0,84,0.00,,---,0.00,VWS V14.01,2013-03-04 02:35:00,
2013-03-03 21:38:00,22.8,20.0,30.13,West,259,2.0,7.0,89,0.00,,---,0.00,VWS V14.01,2013-03-04 02:38:00,
2013-03-03 21:40:00,23.0,18.9,30.13,WSW,242,3.0,5.0,84,0.00,,---,0.00,VWS V14.01,2013-03-04 02:40:00,
2013-03-03 21:43:00,22.8,19.5,30.13,West,260,0.0,3.0,87,0.00,,---,0.00,VWS V14.01,2013-03-04 02:43:00,
2013-03-03 21:45:00,23.1,18.7,30.13,WSW,246,0.0,12.0,83,0.00,,---,0.00,VWS V14.01,2013-03-04 02:45:00,
2013-03-03 21:48:00,22.9,19.4,30.12,WSW,249,3.0,5.0,86,0.00,,---,0.00,VWS V14.01,2013-03-04 02:48:00,
2013-03-03 21:50:00,23.1,18.7,30.12,WSW,243,0.0,8.0,83,0.00,,---,0.00,VWS V14.01,2013-03-04 02:50:00,
2013-03-03 21:53:00,22.9,19.4,30.12,West,281,1.0,5.0,86,0.00,,---,0.00,VWS V14.01,2013-03-04 02:53:00,
2013-03-03 21:55:00,23.0,18.6,30.12,WSW,256,0.0,6.0,83,0.00,,---,0.00,VWS V14.01,2013-03-04 02:55:00,
2013-03-03 21:58:00,22.9,19.4,30.12,WSW,240,0.0,6.0,86,0.00,,---,0.00,VWS V14.01,2013-03-04 02:58:00,
2013-03-03 22:00:00,23.0,18.6,30.12,WSW,258,0.0,5.0,83,0.00,,---,0.00,VWS V14.01,2013-03-04 03:00:00,
2013-03-03 22:03:00,23.0,19.2,30.12,WSW,254,1.0,7.0,85,0.00,,---,0.00,VWS V14.01,2013-03-04 03:03:00,
2013-03-03 22:05:00,23.0,18.6,30.12,West,271,2.0,4.0,83,0.00,,---,0.00,VWS V14.01,2013-03-04 03:05:00,
2013-03-03 22:08:00,23.0,19.2,30.12,West,260,0.0,6.0,85,0.00,,---,0.00,VWS V14.01,2013-03-04 03:08:00,
2013-03-03 22:10:00,23.0,18.6,30.12,West,271,0.0,4.0,83,0.00,,---,0.00,VWS V14.01,2013-03-04 03:10:00,
2013-03-03 22:13:00,23.0,19.2,30.12,West,260,0.0,2.0,85,0.00,,---,0.00,VWS V14.01,2013-03-04 03:13:00,
2013-03-03 22:15:00,23.0,18.6,30.12,West,268,3.0,6.0,83,0.00,,---,0.00,VWS V14.01,2013-03-04 03:15:00,
2013-03-03 22:19:00,23.1,19.0,30.12,West,277,0.0,2.0,84,0.00,,---,0.00,VWS V14.01,2013-03-04 03:19:00,
2013-03-03 22:20:00,22.9,18.2,30.12,WSW,245,3.0,8.0,82,0.00,,---,0.00,VWS V14.01,2013-03-04 03:20:00,
2013-03-03 22:24:00,23.0,18.9,30.12,West,271,0.0,2.0,84,0.00,,---,0.00,VWS V14.01,2013-03-04 03:24:00,
2013-03-03 22:25:00,22.9,18.2,30.12,West,268,5.0,9.0,82,0.00,,---,0.00,VWS V14.01,2013-03-04 03:25:00,
2013-03-03 22:29:00,23.0,18.9,30.13,WSW,245,4.0,4.0,84,0.00,,---,0.00,VWS V14.01,2013-03-04 03:29:00,
2013-03-03 22:30:00,22.9,18.2,30.12,SW,236,3.0,7.0,82,0.00,,---,0.00,VWS V14.01,2013-03-04 03:30:00,
2013-03-03 22:34:00,23.1,18.7,30.12,WSW,246,3.0,3.0,83,0.00,,---,0.00,VWS V14.01,2013-03-04 03:34:00,
2013-03-03 22:35:00,22.9,18.2,30.12,WSW,257,4.0,10.0,82,0.00,,---,0.00,VWS V14.01,2013-03-04 03:35:00,
2013-03-03 22:39:00,23.1,18.7,30.12,WSW,243,0.0,0.0,83,0.00,,---,0.00,VWS V14.01,2013-03-04 03:39:00,
2013-03-03 22:40:00,22.9,18.2,30.12,SW,234,1.0,4.0,82,0.00,,---,0.00,VWS V14.01,2013-03-04 03:40:00,
2013-03-03 22:44:00,23.0,18.6,30.12,West,267,5.0,5.0,83,0.00,,---,0.00,VWS V14.01,2013-03-04 03:44:00,
2013-03-03 22:45:00,22.8,18.1,30.13,West,265,3.0,6.0,82,0.00,,---,0.00,VWS V14.01,2013-03-04 03:45:00,
2013-03-03 22:49:00,23.0,18.6,30.12,WSW,257,0.0,0.0,83,0.00,,---,0.00,VWS V14.01,2013-03-04 03:49:00,
2013-03-03 22:50:00,22.8,18.1,30.12,West,271,3.0,7.0,82,0.00,,---,0.00,VWS V14.01,2013-03-04 03:50:00,
2013-03-03 22:54:00,23.0,18.6,30.12,West,271,0.0,2.0,83,0.00,,---,0.00,VWS V14.01,2013-03-04 03:54:00,
2013-03-03 22:55:00,22.7,17.5,30.12,WNW,291,2.0,6.0,80,0.00,,---,0.00,VWS V14.01,2013-03-04 03:55:00,
2013-03-03 22:59:00,23.0,18.6,30.12,WNW,288,1.0,3.0,83,0.00,,---,0.00,VWS V14.01,2013-03-04 03:59:00,
2013-03-03 23:00:00,22.7,17.5,30.12,WNW,285,2.0,4.0,80,0.00,,---,0.00,VWS V14.01,2013-03-04 04:00:00,
2013-03-03 23:04:00,23.0,18.6,30.12,WSW,246,5.0,8.0,83,0.00,,---,0.00,VWS V14.01,2013-03-04 04:04:00,
2013-03-03 23:05:00,22.7,16.9,30.13,West,265,2.0,5.0,78,0.00,,---,0.00,VWS V14.01,2013-03-04 04:05:00,
2013-03-03 23:09:00,22.9,18.5,30.12,WSW,238,6.0,9.0,83,0.00,,---,0.00,VWS V14.01,2013-03-04 04:09:00,
2013-03-03 23:10:00,22.7,16.6,30.12,NNE,12,0.0,4.0,77,0.00,,---,0.00,VWS V14.01,2013-03-04 04:10:00,
2013-03-03 23:14:00,22.9,18.2,30.12,WSW,242,3.0,6.0,82,0.00,,---,0.00,VWS V14.01,2013-03-04 04:14:00,
2013-03-03 23:15:00,22.6,16.8,30.12,WNW,295,0.0,2.0,78,0.00,,---,0.00,VWS V14.01,2013-03-04 04:15:00,
2013-03-03 23:20:00,22.9,18.2,30.12,WSW,237,1.0,3.0,82,0.00,,---,0.00,VWS V14.01,2013-03-04 04:20:00,
2013-03-03 23:25:00,22.9,18.2,30.12,WSW,257,0.0,4.0,82,0.00,,---,0.00,VWS V14.01,2013-03-04 04:25:00,
2013-03-03 23:30:00,22.9,18.2,30.12,WSW,249,3.0,5.0,82,0.00,,---,0.00,VWS V14.01,2013-03-04 04:30:00,
2013-03-03 23:35:00,22.8,18.1,30.13,WSW,242,3.0,7.0,82,0.00,,---,0.00,VWS V14.01,2013-03-04 04:35:00,
2013-03-03 23:40:00,22.8,18.1,30.12,West,260,4.0,4.0,82,0.00,,---,0.00,VWS V14.01,2013-03-04 04:40:00,
2013-03-03 23:45:00,22.7,17.5,30.13,WSW,256,0.0,4.0,80,0.00,,---,0.00,VWS V14.01,2013-03-04 04:45:00,
2013-03-03 23:50:00,22.7,17.2,30.12,West,271,5.0,5.0,79,0.00,,---,0.00,VWS V14.01,2013-03-04 04:50:00,
2013-03-03 23:55:00,22.7,16.6,30.12,West,265,0.0,4.0,77,0.00,,---,0.00,VWS V14.01,2013-03-04 04:55:00,